This is the latest recevied weather packets stored in our database for station/object KF6ILA. If no packets are shown the sender has not sent any weather packets the latest 10 day(s).
| Time | Temp. | Humidity | Pressure | Rain* | Wind** | Luminosity | Snow |
|---|---|---|---|---|---|---|---|
| 1788141752 | 72° F | 56% | 760.7 mmHg | 0 in | - | 12 W/m² | - |
| 1788141455 | 72° F | 54% | 760.7 mmHg | 0 in | - | 14 W/m² | - |
| 1788141158 | 73° F | 53% | 760.6 mmHg | 0 in | - | 25 W/m² | - |
| 1788140861 | 73° F | 51% | 760.6 mmHg | 0 in | - | 33 W/m² | - |
| 1788140564 | 73° F | 50% | 760.6 mmHg | 0 in | - | 44 W/m² | - |
| 1788140267 | 74° F | 48% | 760.6 mmHg | 0 in | - | 62 W/m² | - |
| 1788139970 | 74° F | 47% | 760.6 mmHg | 0 in | - | 79 W/m² | - |
| 1788139673 | 75° F | 46% | 760.6 mmHg | 0 in | - | 93 W/m² | - |
| 1788139376 | 75° F | 44% | 760.6 mmHg | 0 in | - | 113 W/m² | - |
| 1788139079 | 75° F | 44% | 760.6 mmHg | 0 in | - | 134 W/m² | - |
| 1788138782 | 76° F | 44% | 760.6 mmHg | 0 in | - | 158 W/m² | - |
| 1788138485 | 76° F | 42% | 760.6 mmHg | 0 in | - | 176 W/m² | - |
| 1788138188 | 77° F | 40% | 760.6 mmHg | 0 in | - | 202 W/m² | - |
| 1788137891 | 78° F | 40% | 760.7 mmHg | 0 in | - | 221 W/m² | - |
| 1788137297 | 78° F | 39% | 760.7 mmHg | 0 in | - | 260 W/m² | - |
| 1788137000 | 79° F | 38% | 760.8 mmHg | 0 in | - | 279 W/m² | - |
| 1788136703 | 79° F | 38% | 760.7 mmHg | 0 in | - | 301 W/m² | - |
| 1788136406 | 79° F | 39% | 760.7 mmHg | 0 in | - | 316 W/m² | - |
| 1788136109 | 79° F | 38% | 760.8 mmHg | 0 in | - | 334 W/m² | - |
| 1788135812 | 80° F | 36% | 760.9 mmHg | 0 in | - | 355 W/m² | - |
| 1788135515 | 80° F | 36% | 760.9 mmHg | 0 in | - | 369 W/m² | - |
| 1788135218 | 80° F | 35% | 761 mmHg | 0 in | - | 390 W/m² | - |
| 1788134921 | 80° F | 33% | 760.8 mmHg | 0 in | - | 406 W/m² | - |
| 1788134624 | 80° F | 33% | 760.9 mmHg | 0 in | - | 425 W/m² | - |
| 1788134327 | 80° F | 32% | 760.9 mmHg | 0 in | - | 443 W/m² | - |
* Rain latest hour (hover to see other rain measurements)
** Current wind speed in m/s (hover to see current wind gust speed)